Voltar ao catálogo

STARLINK-37396

AtivoComunicaçõesVLEO
NORAD 69256·PAYLOAD·🇺🇸 United States

Lançado May 30, 2026 de Cape Canaveral Space Force Station

Loading…

Próximas Passagens (próximas 24 horas)

TLE

AtualizadoSource: CelesTrak SupGP

Época: Sep 15, 2026, 04:23 UTC

1 69256C 26117U   26258.18312500  .00028990  00000+0  85654-3 0  2584
2 69256  53.1581 178.2642 0001309  86.0229 330.6391 15.34375238    10

Acompanhe STARLINK-37396 em tempo real com AllMySat

Download on the App Store